Regional Weather Roundup
Issued by NWS

Home | Current Version | Previous Version | Text Only | Print | Product List | Glossary On
Versions: 1 2 3 4 5 6 7 8 9 10 11 12 13 14 15 16 17 18 19 20 21 22 23 24 25 26 27 28 29 30 31 32 33 34 35 36 37 38 39 40 41 42 43 44 45 46 47 48 49 50
000
ASUS45 KTFX 230319
RWRMT
MONTANA HOURLY WEATHER ROUNDUP
NATIONAL WEATHER SERVICE GREAT FALLS MT
919 PM MDT WED OCT 22 2014

NOTE: "FAIR" INDICATES FEW OR NO CLOUDS BELOW 12000 FEET WITH NO
SIGNIFICANT WEATHER AND/OR OBSTRUCTIONS TO VISIBILITY.

* THESE STATIONS ARE NOT UNDER NWS QUALITY CONTROL. THEY DO NOT
   REPORT WEATHER SUCH AS PRECIPITATION OR FOG.

MTZ001>007-043-230400-
WEST OF THE DIVIDE
CITY           SKY/WX    TMP DP  RH WIND       PRES   REMARKS
KALISPELL      CLOUDY    52  37  57 CALM      29.85F
MISSOULA       PTCLDY    54  37  53 SE8       29.91F
BUTTE          CLEAR     41  30  65 S3        30.04F
MULLAN PASS    CLOUDY    43  34  71 S13G23    29.88F
* ESSEX        N/A       44  39  83 NW2        N/A
* LINCOLN      N/A       40  33  76 W1         N/A
* LOOKOUT PASS N/A       49  35  59 S9G17      N/A
* POLSON       N/A       46  36  68 SE1        N/A
* RONAN APT    CLEAR     54  37  53 N/A        N/A
* SEELEY LAKE  N/A       40  35  82 NE3        N/A
* THOMP F APT  MOCLDY    38  29  70 NE6        N/A   WCI  33
$$

MTZ008-052>055-230400-
SOUTHWEST MONTANA
CITY           SKY/WX    TMP DP  RH WIND       PRES   REMARKS
BOZEMAN        CLEAR     39  30  70 SE8       30.04R WCI  33
DILLON         PTCLDY    43  28  56 W3        30.05F
W YELLOWSTONE  CLEAR     28  27  96 CALM      30.19S
* THREE FORKS  CLEAR     52  36  55 S17G28     N/A
* BOULDER HILL N/A       45  24  44 SW13G18    N/A
* MONIDA PASS  N/A       35  28  76 SE5G11     N/A   WCI  31
* RAYNOLDS PAS N/A       37  21  52 S12        N/A   WCI  29
* WHITEHALL    N/A       49  29  46 W9G15      N/A
* WISE RIVER   N/A       38  29  70 S4         N/A
$$

MTZ009>010-012-014-046-048-049-054-230400-
EAST SLOPES AND CENTRAL MONTANA
CITY           SKY/WX    TMP DP  RH WIND       PRES   REMARKS
CUT BANK       PTCLDY    52  34  50 S14       29.82F
GREAT FALLS    CLEAR     46  34  63 S12       29.89S
HELENA         CLEAR     54  32  43 SW6       29.95S
MALMSTROM AFB  CLEAR     48  34  59 SW14      29.90S
* CONRAD       CLEAR     39  36  89 N/A        N/A
* DEARBORN     N/A       54  33  45 E1         N/A
* EAST GLACIER N/A       48  33  56 W22G29     N/A
* MONARCH      N/A       48  20  33 S15        N/A
* PENDROY      N/A       45  33  63 SW9        N/A
* ROGERS PASS  N/A       46  31  56 SE12G20    N/A
* SAINT MARY   N/A       50  34  54 S7G19      N/A
* SWEET GRASS  N/A       52  33  48 SW27G34    N/A
* WHITE SULPH  N/A       47  26  44 S12G18     N/A
$$

MTZ011-013-016-021-035-040-045-047-050-051-230400-
NORTH CENTRAL MONTANA
CITY           SKY/WX    TMP DP  RH WIND       PRES   REMARKS
HAVRE          CLEAR     55  34  45 SW20      29.81F
LEWISTOWN      CLEAR     50  30  46 SW14      29.93S
* CHINOOK      CLEAR     48  36  63 CALM      29.83F
* FORT BENTON  CLEAR     54  34  47 SW9       29.86F
* CHESTER      N/A       47  34  61 S4         N/A
* DENTON       N/A       43  29  58 NW1        N/A
* GEYSER       N/A       48  27  44 W16        N/A
* JUDITH GAP   N/A       47  30  52 SE11       N/A
* LOMA         N/A       54  35  49 S7G14      N/A
$$

MTZ017>020-022>027-061-062-230400-
NORTHEAST MONTANA
CITY           SKY/WX    TMP DP  RH WIND       PRES   REMARKS
GLASGOW        PTCLDY    48  30  50 SE6       29.86F
GLENDIVE       CLEAR     39  30  70 S8        29.93S WCI  33
JORDAN         CLEAR     34  27  76 NW3       29.90S
SIDNEY         CLEAR     48  30  50 SW6       29.91S
WOLF POINT     CLEAR     39  30  70 CALM      29.88F
* BEAVER HILL  N/A       45  30  56 S1         N/A
* CIRCLE       N/A       44  31  60 N/A        N/A
* LINDSAY DVD  N/A       44  29  56 W4         N/A
* NAVAJO       N/A       45  32  60 W14        N/A
$$

MTZ028>042-056>058-230400-
SOUTHCENTRAL AND SOUTHEAST MONTANA
CITY           SKY/WX    TMP DP  RH WIND       PRES   REMARKS
BAKER          CLEAR     45  28  51 SW5       29.95S
BILLINGS       CLEAR     50  25  38 SW7       29.97R
LIVINGSTON     CLEAR     52  25  35 SW23G39   30.00S
MILES CITY     CLEAR     48  27  44 SE6       29.93R
* LAUREL APT   CLEAR     50  21  32 SW7        N/A
* ROUNDUP APT  CLEAR     48  25  41 N/A        N/A
* ALZADA       N/A       43  29  58 E4         N/A
* HYSHAM       N/A       51  21  31 SE1        N/A
* LAME DEER    N/A       49  21  33 SW5        N/A
* REED POINT   N/A       50  24  36 W4         N/A
* ROSCOE HILL  N/A       53  16  23 S19G27     N/A
$$

REGIONAL REPORTS...DAKOTAS
CITY           SKY/WX    TMP DP  RH WIND       PRES   REMARKS
WILLISTON      CLEAR     52  34  50 W13       29.87R
DICKINSON      PTCLDY    45  32  60 W7        29.92R
BEACH          N/A       37  32  82 CALM      29.94R
CROSBY         CLEAR     45  41  86 SW9       29.83S
TIOGA          CLEAR     48  37  66 W13       29.88R
BISMARCK       CLEAR     48  37  66 SW3       29.92R
GRAND FORKS    CLOUDY    52  48  86 S9        29.84S
FARGO          CLOUDY    54  52  93 SW8       29.89S
BUFFALO SD     CLEAR     45  28  51 W6        29.92R
RAPID CITY     CLEAR     43  30  60 CALM      30.02S
$$

REGIONAL REPORTS...WYOMING/IDAHO/WASHINGTON
CITY           SKY/WX    TMP DP  RH WIND       PRES   REMARKS
GILLETTE       CLEAR     43  21  42 CALM      30.02R
SHERIDAN       CLEAR     45  25  45 SE3       30.00R
CODY           PTCLDY    54  25  33 SW14G20   30.06R
YELLOWSTONE LA PTCLDY    27  23  85 CALM      30.25S
SALMON         MOCLDY   N/A N/A N/A N/A        N/A
MULLAN PASS    CLOUDY    43  34  71 S13G23    29.88S
SAND POINT     LGT RAIN  46  46 100 CALM      29.81F
SPOKANE        LGT RAIN  50  48  93 SE7       29.78F
$$

REGIONAL REPORTS...ALBERTA
CITY           SKY/WX    TMP DP  RH WIND       PRES   REMARKS
CALGARY        PTCLDY    50  32  50 S8        29.63F
LETHBRIDGE     PTCLDY    43  36  76 S7        29.73F
MEDICINE HAT   MOCLDY    52  37  57 S12       29.73F
EDMONTON       CLOUDY    50  32  50 SE10      29.56S
WATERTON GATE  N/A       52  36  55 SW22G37    N/A
CARDSTON       N/A       46  36  68 S6         N/A
MILK RIVER     N/A       50  36  59 SW14G20    N/A
$$

REGIONAL REPORTS...SASKATCHEWAN
CITY           SKY/WX    TMP DP  RH WIND       PRES   REMARKS
SWIFT CURRENT  CLEAR     39  34  82 S9        29.79S WCI  33
REGINA         FAIR      43  41  93 SW7       29.79S
VAL MARIE      N/A       34  30  85 SW7        N/A   WCI  28
ASSINIBOIA     N/A       43  37  79 SW10       N/A
CORONACH       N/A       45  34  65 W8         N/A

$$




USA.gov is the U.S. government's official web portal to all federal, state and local government web resources and services.